2023-001B (55010 NORAD) Tracking and Keplerian Element Data

This shows tracking and keplerian element data for the satellite.

Feedback or suggestion? Click here.




ElementValue
Catalog55010
Name2023-001B
Epoch Orbit170
Epoch Day13.85618005
Epoch Year2023
RAAN75.7928
Inclination97.5034
Eccentricity0.0010474
Argument of Perigee192.6252
Mean Anonmoly167.4718
Mean Motion15.11926872
Decay Rate0.00013163
L11 55010U 23001B 23013.85618005 .00013163 00000+0 77019-3 0 9999
L22 55010 97.5034 75.7928 0010474 192.6252 167.4718 15.11926872 1706



Live tracking and technical data element details for 2023-001B (NORAD 55010). 2023-001B can be tracked NOW for your location showing map with azimuth and elevation plus other details from your city location.







IsCatalogInMostPopularTable: catalog: 55010, numindb: 3
Update: records affected: 1



GetName: 55010 2023-001B

Hit Count: updated at: Tue, 07 Feb 2023 15:53:52 GMT